Total_Precipitation_Accumulation
0.00 0.01 0.01 0.01 0.01 0.01 0.01 0.01 0.01 0.01 0.01 0.01 0.01 0.01 0.02 0.03 0.03 0.06 0.07 0.07 0.09 0.09 0.10 0.11 0.11 0.10 0.14 0.17 0.19 0.22 0.25 0.29 0.29 0.17 0.12 0.11 0.12 0.13 0.14 0.15 0.14 0.14 0.14
0.00 0.01 0.01 0.01 0.01 0.02 0.01 0.01 0.01 0.01 0.01 0.01 0.02 0.02 0.02 0.02 0.03 0.05 0.06 0.08 0.09 0.10 0.10 0.11 0.12 0.12 0.15 0.18 0.22 0.24 0.26 0.27 0.31 0.27 0.20 0.17 0.16 0.17 0.19 0.21 0.20 0.18 0.15
0.00 0.01 0.01 0.01 0.01 0.01 0.01 0.01 0.01 0.01 0.02 0.02 0.03 0.03 0.03 0.03 0.04 0.05 0.07 0.08 0.10 0.11 0.12 0.14 0.15 0.17 0.20 0.22 0.24 0.28 0.30 0.31 0.35 0.37 0.32 0.28 0.26 0.25 0.28 0.28 0.25 0.21 0.16
0.00 0.00 0.00 0.00 0.01 0.01 0.01 0.01 0.02 0.02 0.03 0.03 0.04 0.04 0.04 0.04 0.05 0.06 0.08 0.11 0.13 0.14 0.15 0.17 0.19 0.20 0.23 0.25 0.29 0.31 0.35 0.41 0.46 0.48 0.45 0.39 0.34 0.32 0.32 0.30 0.26 0.20 0.17
0.00 0.00 0.00 0.00 0.00 0.01 0.01 0.01 0.02 0.02 0.03 0.03 0.03 0.03 0.04 0.05 0.06 0.07 0.09 0.12 0.14 0.14 0.15 0.15 0.17 0.23 0.27 0.29 0.31 0.31 0.36 0.45 0.51 0.53 0.48 0.41 0.34 0.31 0.30 0.27 0.28 0.26 0.25
0.00 0.00 0.00 0.00 0.01 0.01 0.01 0.02 0.02 0.02 0.03 0.03 0.04 0.04 0.04 0.05 0.10 0.13 0.13 0.13 0.14 0.15 0.15 0.15 0.17 0.24 0.29 0.36 0.39 0.41 0.42 0.46 0.51 0.55 0.52 0.45 0.34 0.31 0.33 0.39 0.42 0.44 0.37
0.00 0.00 0.00 0.00 0.01 0.01 0.01 0.02 0.02 0.02 0.03 0.03 0.04 0.04 0.05 0.07 0.13 0.14 0.15 0.15 0.14 0.16 0.16 0.18 0.20 0.23 0.32 0.32 0.40 0.48 0.46 0.48 0.51 0.52 0.55 0.45 0.41 0.40 0.49 0.55 0.51 0.48 0.38
0.00 0.00 0.00 0.00 0.01 0.01 0.01 0.01 0.01 0.02 0.03 0.04 0.04 0.05 0.06 0.08 0.15 0.16 0.19 0.18 0.17 0.17 0.18 0.20 0.23 0.26 0.31 0.38 0.41 0.46 0.45 0.45 0.49 0.52 0.50 0.46 0.46 0.49 0.57 0.65 0.66 0.66 0.51
0.00 0.00 0.01 0.01 0.01 0.01 0.01 0.01 0.01 0.02 0.03 0.03 0.04 0.05 0.07 0.10 0.18 0.19 0.22 0.20 0.21 0.22 0.23 0.26 0.30 0.32 0.41 0.54 0.55 0.53 0.50 0.48 0.52 0.57 0.56 0.54 0.56 0.59 0.62 0.77 0.82 0.80 0.63
0.00 0.00 0.01 0.01 0.01 0.01 0.01 0.01 0.02 0.03 0.04 0.05 0.06 0.07 0.09 0.12 0.21 0.26 0.25 0.23 0.25 0.26 0.28 0.31 0.38 0.40 0.49 0.61 0.64 0.63 0.62 0.50 0.53 0.60 0.60 0.57 0.54 0.54 0.56 0.62 0.70 0.86 0.77
0.00 0.01 0.01 0.01 0.01 0.01 0.02 0.03 0.04 0.05 0.07 0.10 0.11 0.13 0.15 0.19 0.27 0.32 0.31 0.29 0.29 0.33 0.35 0.34 0.35 0.45 0.55 0.64 0.70 0.68 0.59 0.63 0.78 0.77 0.72 0.66 0.63 0.61 0.61 0.61 0.62 0.73 0.80
0.01 0.01 0.01 0.02 0.02 0.03 0.04 0.06 0.08 0.10 0.14 0.17 0.19 0.22 0.24 0.27 0.32 0.35 0.37 0.36 0.36 0.44 0.41 0.36 0.38 0.52 0.62 0.69 0.74 0.66 0.65 0.82 0.92 0.86 0.77 0.68 0.61 0.59 0.57 0.58 0.59 0.58 0.57
0.02 0.03 0.03 0.04 0.05 0.07 0.09 0.13 0.16 0.19 0.22 0.24 0.26 0.28 0.30 0.32 0.36 0.40 0.42 0.44 0.45 0.47 0.40 0.40 0.47 0.58 0.68 0.71 0.68 0.69 0.82 0.93 0.91 0.82 0.67 0.53 0.48 0.50 0.57 0.63 0.65 0.63 0.59
0.05 0.06 0.07 0.09 0.11 0.13 0.16 0.18 0.22 0.26 0.30 0.33 0.35 0.35 0.35 0.36 0.36 0.40 0.48 0.57 0.62 0.59 0.53 0.54 0.59 0.67 0.76 0.75 0.73 0.78 0.84 0.80 0.74 0.68 0.57 0.52 0.53 0.59 0.64 0.64 0.69 0.70 0.72
0.07 0.08 0.09 0.11 0.14 0.18 0.21 0.22 0.25 0.27 0.32 0.43 0.49 0.51 0.53 0.48 0.40 0.50 0.66 0.76 0.76 0.73 0.77 0.83 0.80 0.77 0.81 0.78 0.76 0.76 0.76 0.78 0.76 0.70 0.70 0.70 0.65 0.62 0.61 0.60 0.64 0.68 0.69
0.10 0.10 0.10 0.12 0.14 0.17 0.19 0.24 0.28 0.30 0.35 0.44 0.50 0.55 0.54 0.50 0.55 0.70 0.76 0.77 0.78 0.78 0.96 0.91 0.70 0.62 0.59 0.57 0.60 0.64 0.64 0.66 0.65 0.68 0.72 0.69 0.65 0.61 0.61 0.61 0.62 0.63 0.60
0.13 0.14 0.15 0.16 0.17 0.18 0.19 0.21 0.24 0.29 0.31 0.34 0.38 0.42 0.46 0.49 0.58 0.67 0.77 0.87 0.89 0.87 0.93 0.69 0.56 0.55 0.55 0.55 0.58 0.59 0.57 0.56 0.61 0.69 0.70 0.67 0.65 0.65 0.63 0.60 0.58 0.59 0.57
0.13 0.15 0.16 0.17 0.18 0.18 0.20 0.21 0.23 0.25 0.29 0.30 0.30 0.34 0.39 0.45 0.54 0.64 0.78 1.01 1.04 0.83 0.63 0.49 0.50 0.53 0.56 0.57 0.57 0.56 0.56 0.57 0.61 0.63 0.63 0.61 0.61 0.63 0.61 0.54 0.50 0.50 0.51
0.14 0.16 0.16 0.18 0.18 0.19 0.20 0.22 0.24 0.26 0.27 0.28 0.30 0.33 0.36 0.41 0.51 0.60 0.73 0.86 0.68 0.53 0.43 0.44 0.51 0.58 0.59 0.58 0.56 0.54 0.54 0.52 0.50 0.53 0.56 0.55 0.55 0.59 0.56 0.48 0.46 0.46 0.50
0.17 0.17 0.19 0.22 0.22 0.22 0.22 0.24 0.26 0.28 0.29 0.29 0.28 0.28 0.37 0.48 0.53 0.51 0.56 0.55 0.53 0.49 0.44 0.47 0.54 0.60 0.60 0.58 0.54 0.52 0.53 0.50 0.48 0.50 0.49 0.49 0.50 0.53 0.52 0.48 0.47 0.48 0.46
0.23 0.23 0.24 0.27 0.28 0.27 0.28 0.30 0.31 0.33 0.32 0.30 0.29 0.31 0.45 0.50 0.39 0.37 0.44 0.50 0.52 0.49 0.46 0.47 0.51 0.54 0.54 0.53 0.51 0.49 0.48 0.46 0.43 0.43 0.43 0.43 0.44 0.46 0.44 0.45 0.47 0.47 0.48
0.28 0.28 0.29 0.32 0.34 0.36 0.37 0.37 0.38 0.38 0.36 0.35 0.34 0.39 0.49 0.46 0.39 0.38 0.41 0.44 0.46 0.47 0.47 0.46 0.47 0.49 0.49 0.48 0.47 0.46 0.43 0.40 0.37 0.38 0.39 0.39 0.40 0.40 0.40 0.41 0.42 0.43 0.43
0.29 0.30 0.32 0.34 0.36 0.39 0.40 0.39 0.39 0.38 0.37 0.36 0.37 0.40 0.41 0.36 0.33 0.33 0.35 0.38 0.41 0.43 0.44 0.45 0.43 0.42 0.41 0.40 0.40 0.39 0.37 0.34 0.35 0.37 0.38 0.36 0.34 0.33 0.34 0.36 0.36 0.37 0.37
0.29 0.29 0.30 0.31 0.33 0.34 0.35 0.35 0.36 0.36 0.36 0.36 0.35 0.32 0.31 0.32 0.33 0.34 0.35 0.36 0.36 0.35 0.34 0.33 0.33 0.31 0.29 0.28 0.28 0.28 0.29 0.31 0.34 0.35 0.33 0.32 0.29 0.28 0.29 0.31 0.33 0.35 0.36
0.28 0.28 0.27 0.28 0.29 0.30 0.30 0.31 0.32 0.33 0.33 0.32 0.30 0.30 0.31 0.32 0.32 0.31 0.30 0.30 0.27 0.25 0.24 0.23 0.22 0.22 0.21 0.20 0.20 0.21 0.22 0.25 0.27 0.27 0.27 0.27 0.26 0.24 0.25 0.27 0.30 0.33 0.35
0.25 0.25 0.25 0.26 0.26 0.26 0.26 0.27 0.27 0.27 0.27 0.27 0.27 0.28 0.29 0.28 0.27 0.25 0.24 0.23 0.21 0.19 0.18 0.17 0.17 0.17 0.17 0.17 0.18 0.18 0.20 0.23 0.25 0.23 0.23 0.23 0.22 0.20 0.21 0.23 0.25 0.28 0.31